SCP
-0 0 0 0 0 0 2 1 2 4 4 3 2 2 2 2 2 2 3 2 2 2 1 1 1 1 2 2 2 2 2 2
0 -0 -0 0 0 1 1 1 2 4 3 3 3 2 2 2 2 2 2 2 3 3 3 2 2 2 2 2 3 2 2 3
0 0 0 0 0 0 1 1 2 2 3 3 3 2 2 2 2 2 2 2 2 3 3 3 2 2 2 2 3 3 3 3
0 0 0 0 0 1 1 1 1 1 1 2 1 2 1 1 2 2 2 2 2 2 3 3 3 3 2 2 3 3 4 4
0 0 0 0 0 0 0 1 2 1 1 2 1 1 1 1 1 2 2 2 1 1 2 2 3 3 3 3 3 3 4 4
0 0 0 0 0 0 0 0 0 2 1 1 2 2 2 1 1 1 2 3 3 3 3 3 3 5 4 4 5 6 5 5
0 0 0 0 0 0 0 0 0 1 2 2 2 2 2 1 1 1 2 2 4 5 5 5 6 5 5 5 4 5 7 9
0 0 0 0 1 1 0 0 0 0 0 0 0 1 0 0 0 1 1 2 2 4 7 8 8 8 8 7 7 6 6 8
0 0 0 0 0 0 0 0 0 0 0 0 0 1 1 1 1 2 2 3 3 3 5 6 8 8 8 6 6 5 4 4
0 0 0 0 0 0 0 0 0 0 0 0 1 1 1 1 1 2 3 3 3 3 4 5 7 7 5 4 4 3 3 3
0 0 0 0 0 0 0 0 0 0 0 0 0 0 1 1 1 1 2 2 3 4 4 4 4 5 4 4 3 3 3 3
0 0 0 0 0 0 0 0 0 0 0 0 0 0 1 1 1 1 1 2 2 3 3 2 3 2 2 3 3 3 2 2
0 0 0 0 0 0 0 0 0 0 0 0 0 0 0 0 0 1 1 1 1 1 1 1 2 1 1 1 2 2 2 1
1 1 0 0 0 0 0 0 0 0 0 0 0 0 0 0 0 0 0 0 0 0 0 0 0 0 0 0 0 0 1 1
1 1 0 0 0 0 0 0 0 0 0 0 0 0 0 0 0 0 0 0 0 0 0 0 0 0 0 0 0 0 0 0
1 0 0 0 0 0 0 0 0 0 0 0 0 0 0 0 0 0 0 0 0 0 0 0 0 0 0 0 0 0 0 0
0 0 0 0 0 0 0 0 0 0 0 0 0 0 0 0 0 0 0 0 0 0 0 0 0 0 0 0 0 0 0 0
0 0 0 0 0 0 0 0 0 0 0 0 0 0 0 0 0 0 0 0 0 0 0 0 0 0 0 0 0 0 0 0
0 0 0 0 0 0 0 0 0 0 0 0 0 0 0 0 0 0 0 0 0 0 0 0 0 0 0 0 0 0 0 0
Wind_Speed_500mb
47 42 44 52 50 53 66 69 66 63 64 69 68 68 71 73 65 65 63 64 68 68 63 68 64 65 67 68 67 60 61 60
45 41 42 29 34 35 60 60 63 62 66 73 70 72 66 70 70 70 68 70 68 72 70 64 69 71 75 73 70 70 73 66
26 31 23 21 36 36 42 57 62 66 69 68 70 66 65 63 68 71 71 69 71 73 76 75 70 75 79 79 77 77 80 75
10 5 11 23 24 32 42 43 60 63 62 57 55 54 51 59 65 66 68 68 72 76 81 81 80 75 81 83 85 85 86 76
7 6 13 28 37 43 45 42 50 56 55 54 53 55 62 62 59 57 64 66 71 71 78 81 85 81 81 78 74 84 83 85
18 14 13 8 11 27 54 55 36 48 50 53 52 53 50 52 50 55 58 60 66 74 75 76 78 80 84 81 76 74 76 89
21 22 19 19 22 19 15 21 46 19 33 33 46 48 46 46 51 57 55 56 54 63 70 73 80 81 78 79 83 85 84 89
30 28 25 20 22 26 27 25 22 30 32 38 39 41 41 46 52 50 52 58 58 59 63 69 76 78 79 79 79 82 87 91
34 32 26 22 21 25 23 15 14 7 1 6 16 26 28 29 33 35 39 45 47 48 57 63 71 74 72 69 78 86 92 91
29 30 30 23 15 19 23 22 21 22 22 22 20 20 21 28 33 40 46 51 56 60 59 61 65 65 65 68 70 67 71 80
40 34 24 24 19 16 18 16 11 6 3 4 10 15 24 30 35 38 40 40 44 47 51 57 57 58 62 64 65 66 61 65
47 37 26 23 23 19 21 17 15 14 13 15 16 18 19 20 21 27 33 35 38 42 49 61 68 62 63 64 66 62 56 50
45 34 28 26 24 22 20 21 21 20 21 22 24 23 24 26 30 31 32 35 38 45 42 39 39 44 47 55 59 56 52 49
43 38 33 28 28 24 24 23 24 21 18 20 23 28 31 33 33 31 29 29 31 31 35 42 42 45 47 49 43 42 38 48
44 38 35 29 30 27 22 20 18 15 12 15 23 28 32 33 31 32 31 30 29 30 32 30 32 35 39 41 40 43 42 46
47 41 32 29 28 25 18 14 13 10 13 19 23 28 29 29 30 29 32 33 32 29 29 30 34 40 43 44 40 43 48 53
39 39 34 27 25 23 19 9 10 12 14 18 25 28 25 27 32 31 30 29 28 31 30 30 37 35 42 46 49 47 47 48
44 37 31 27 25 23 21 15 12 15 15 22 22 24 21 27 27 28 30 28 29 31 32 33 35 34 35 38 43 40 42 44
47 41 32 28 26 24 22 19 13 15 18 18 20 24 23 26 25 25 25 25 34 33 32 30 30 32 37 35 30 29 31 34
Wind_Direction_500mb
255 249 239 240 237 240 211 215 223 233 237 236 232 231 224 226 230 232 231 242 245 252 249 240 239 235 240 237 237 239 246 244
252 260 259 245 245 217 202 211 222 229 232 236 233 231 234 227 236 232 239 232 242 249 254 250 236 240 241 242 241 242 241 239
253 240 229 243 225 225 208 214 225 230 236 243 246 242 233 240 238 240 237 240 236 242 252 254 252 242 242 242 239 241 245 242
225 193 221 236 222 222 222 214 225 232 236 237 239 235 243 237 239 243 247 247 244 241 246 254 255 250 249 247 244 240 240 243
193 213 218 227 225 227 226 220 222 228 235 232 235 236 235 238 239 246 247 250 255 254 254 252 255 253 249 247 250 249 244 244
145 136 130 154 238 243 231 221 208 219 226 237 233 235 244 250 254 254 252 255 256 258 260 261 258 253 260 254 247 247 253 250
155 142 124 104 90 96 108 198 215 211 213 233 235 239 249 254 257 256 257 255 257 260 263 264 264 261 261 261 257 248 246 247
172 161 135 122 104 97 106 128 161 197 212 225 238 253 256 255 249 251 257 257 255 259 261 261 264 268 273 270 264 259 255 249
184 155 149 142 132 121 106 91 71 61 100 244 240 253 265 275 288 289 283 278 274 270 266 264 266 271 272 272 268 265 260 258
178 159 152 138 147 139 139 131 156 178 187 204 212 229 253 271 269 268 270 270 273 275 271 270 272 273 272 272 266 266 262 258
183 166 155 148 162 147 137 153 156 153 197 263 262 259 256 265 270 273 273 275 282 282 279 275 274 275 274 276 278 274 267 263
162 154 159 152 161 142 124 108 89 74 59 43 33 24 15 359 340 320 306 295 287 287 283 281 282 282 274 275 278 275 275 269
161 154 154 155 149 134 115 108 97 88 82 68 57 44 34 21 12 4 354 339 314 300 296 301 294 290 287 283 277 274 269 270
155 159 159 166 144 125 121 106 89 77 56 43 33 18 8 2 352 349 349 351 346 338 314 303 304 306 302 295 300 291 280 284
154 158 154 160 137 125 109 98 95 75 43 19 15 11 1 356 348 342 337 340 339 345 337 328 324 319 305 299 294 285 281 285
162 162 162 156 130 115 108 101 90 64 30 10 11 12 359 348 342 338 335 335 339 341 336 336 317 318 320 321 316 307 301 294
166 162 163 145 122 116 111 111 80 63 46 27 7 13 5 352 350 346 336 339 338 331 331 329 330 334 324 322 317 316 314 308
168 163 155 139 126 121 104 93 87 74 50 29 11 11 8 356 356 346 342 357 326 329 330 330 334 337 330 323 323 331 329 329
157 152 148 130 124 120 118 105 86 65 45 37 10 10 8 355 6 340 346 330 332 341 345 353 357 5 13 16 2 4 1 359
Wind_Speed_850mb
47 42 44 52 50 53 66 69 66 63 64 69 68 68 71 73 65 65 63 64 68 68 63 68 64 65 67 68 67 60 61 60
45 41 42 29 34 35 60 60 63 62 66 73 70 72 66 70 70 70 68 70 68 72 70 64 69 71 75 73 70 70 73 66
26 31 23 21 36 36 42 57 62 66 69 68 70 66 65 63 68 71 71 69 71 73 76 75 70 75 79 79 77 77 80 75
10 5 11 23 24 32 42 43 60 63 62 57 55 54 51 59 65 66 68 68 72 76 81 81 80 75 81 83 85 85 86 76
7 6 13 28 37 43 45 42 50 56 55 54 53 55 62 62 59 57 64 66 71 71 78 81 85 81 81 78 74 84 83 85
18 14 13 8 11 27 54 55 36 48 50 53 52 53 50 52 50 55 58 60 66 74 75 76 78 80 84 81 76 74 76 89
21 22 19 19 22 19 15 21 46 19 33 33 46 48 46 46 51 57 55 56 54 63 70 73 80 81 78 79 83 85 84 89
30 28 25 20 22 26 27 25 22 30 32 38 39 41 41 46 52 50 52 58 58 59 63 69 76 78 79 79 79 82 87 91
34 32 26 22 21 25 23 15 14 7 1 6 16 26 28 29 33 35 39 45 47 48 57 63 71 74 72 69 78 86 92 91
29 30 30 23 15 19 23 22 21 22 22 22 20 20 21 28 33 40 46 51 56 60 59 61 65 65 65 68 70 67 71 80
40 34 24 24 19 16 18 16 11 6 3 4 10 15 24 30 35 38 40 40 44 47 51 57 57 58 62 64 65 66 61 65
47 37 26 23 23 19 21 17 15 14 13 15 16 18 19 20 21 27 33 35 38 42 49 61 68 62 63 64 66 62 56 50
45 34 28 26 24 22 20 21 21 20 21 22 24 23 24 26 30 31 32 35 38 45 42 39 39 44 47 55 59 56 52 49
43 38 33 28 28 24 24 23 24 21 18 20 23 28 31 33 33 31 29 29 31 31 35 42 42 45 47 49 43 42 38 48
44 38 35 29 30 27 22 20 18 15 12 15 23 28 32 33 31 32 31 30 29 30 32 30 32 35 39 41 40 43 42 46
47 41 32 29 28 25 18 14 13 10 13 19 23 28 29 29 30 29 32 33 32 29 29 30 34 40 43 44 40 43 48 53
39 39 34 27 25 23 19 9 10 12 14 18 25 28 25 27 32 31 30 29 28 31 30 30 37 35 42 46 49 47 47 48
44 37 31 27 25 23 21 15 12 15 15 22 22 24 21 27 27 28 30 28 29 31 32 33 35 34 35 38 43 40 42 44
47 41 32 28 26 24 22 19 13 15 18 18 20 24 23 26 25 25 25 25 34 33 32 30 30 32 37 35 30 29 31 34
Wind_Direction_850mb
255 249 239 240 237 240 211 215 223 233 237 236 232 231 224 226 230 232 231 242 245 252 249 240 239 235 240 237 237 239 246 244
252 260 259 245 245 217 202 211 222 229 232 236 233 231 234 227 236 232 239 232 242 249 254 250 236 240 241 242 241 242 241 239
253 240 229 243 225 225 208 214 225 230 236 243 246 242 233 240 238 240 237 240 236 242 252 254 252 242 242 242 239 241 245 242
225 193 221 236 222 222 222 214 225 232 236 237 239 235 243 237 239 243 247 247 244 241 246 254 255 250 249 247 244 240 240 243
193 213 218 227 225 227 226 220 222 228 235 232 235 236 235 238 239 246 247 250 255 254 254 252 255 253 249 247 250 249 244 244
145 136 130 154 238 243 231 221 208 219 226 237 233 235 244 250 254 254 252 255 256 258 260 261 258 253 260 254 247 247 253 250
155 142 124 104 90 96 108 198 215 211 213 233 235 239 249 254 257 256 257 255 257 260 263 264 264 261 261 261 257 248 246 247
172 161 135 122 104 97 106 128 161 197 212 225 238 253 256 255 249 251 257 257 255 259 261 261 264 268 273 270 264 259 255 249
184 155 149 142 132 121 106 91 71 61 100 244 240 253 265 275 288 289 283 278 274 270 266 264 266 271 272 272 268 265 260 258
178 159 152 138 147 139 139 131 156 178 187 204 212 229 253 271 269 268 270 270 273 275 271 270 272 273 272 272 266 266 262 258
183 166 155 148 162 147 137 153 156 153 197 263 262 259 256 265 270 273 273 275 282 282 279 275 274 275 274 276 278 274 267 263
162 154 159 152 161 142 124 108 89 74 59 43 33 24 15 359 340 320 306 295 287 287 283 281 282 282 274 275 278 275 275 269
161 154 154 155 149 134 115 108 97 88 82 68 57 44 34 21 12 4 354 339 314 300 296 301 294 290 287 283 277 274 269 270
155 159 159 166 144 125 121 106 89 77 56 43 33 18 8 2 352 349 349 351 346 338 314 303 304 306 302 295 300 291 280 284
154 158 154 160 137 125 109 98 95 75 43 19 15 11 1 356 348 342 337 340 339 345 337 328 324 319 305 299 294 285 281 285
162 162 162 156 130 115 108 101 90 64 30 10 11 12 359 348 342 338 335 335 339 341 336 336 317 318 320 321 316 307 301 294
166 162 163 145 122 116 111 111 80 63 46 27 7 13 5 352 350 346 336 339 338 331 331 329 330 334 324 322 317 316 314 308
168 163 155 139 126 121 104 93 87 74 50 29 11 11 8 356 356 346 342 357 326 329 330 330 334 337 330 323 323 331 329 329
157 152 148 130 124 120 118 105 86 65 45 37 10 10 8 355 6 340 346 330 332 341 345 353 357 5 13 16 2 4 1 359